User: anonymous   Login
Location: Vibo Valentia
(38.6670°N, 16.1000°E)
Time: 19:45:38
(UTC+02:00)
Language:

STARLINK-1353 - Orbit

View from above orbital plane
View from above orbital plane
View from above satellite
View from above satellite

Ground track
Ground track

The orbit data is extracted from the following two-line orbital elements,

1 45537U 20025G   21128.29149076  .00001686  00000-0  11043-3 0  9998
2 45537  53.0024 101.6770 0000819 177.3856 182.7139 15.13252911 58472
Epoch (UTC): 08 May 2021 06:59:44
Eccentricity: 0.0000819
inclination: 53.0024°
perigee height: 526 km
apogee height: 527 km
right ascension of ascending node: 101.6770°
argument of perigee: 177.3856°
revolutions per day: 15.13252911
mean anomaly at epoch: 182.7139°
orbit number at epoch: 5847

The dashed part of the orbit path shows where the satellite is in the earth's shadow,  

DLR